This demonstration page uses our WeatherBlox Daily Observations layout. Learn more.

Left ArrowRight Arrow

36.19886, -115.1175

Hourly Observations for August 2, 2016

Temp ( °F °C ) Dew Point ( °F °C ) Humidity (%) Winds ( mph kmh ) Pressure ( in mb ) Visibility ( mi km ) Precip ( " mm )
12:53 am 00:53 Clear 90 32.2 60 15.6 37 37 ESE 6 9 29.91 1013 10 16.0934 0 0
1:53 am 01:53 Clear 90 32.2 61 16.1 38 38 SE 10 17 29.91 1013 10 16.0934 0 0
2:53 am 02:53 Clear 89 31.7 60 15.6 38 38 ESE 7 11 29.91 1013 10 16.0934 0 0
3:53 am 03:53 Clear 88 31.1 61 16.1 40 40 SE 6 9 29.92 1013 10 16.0934 0 0
4:53 am 04:53 Clear 86 30 59 15 40 40 ENE 7 11 29.92 1013 10 16.0934 0 0
5:53 am 05:53 Sunny 85 29.4 60 15.6 43 43 E 9 15 29.94 1014 10 16.0934 0 0
6:53 am 06:53 Sunny 86 30 61 16.1 43 43 ESE 6 9 29.96 1015 10 16.0934 0 0
7:53 am 07:53 Sunny 86 30 61 16.1 43 43 ESE 6 9 29.97 1015 10 16.0934 0 0
8:53 am 08:53 Sunny 88 31.1 61 16.1 40 40 S 6 9 29.97 1015 10 16.0934 0 0
9:53 am 09:53 Sunny 91 32.8 61 16.1 37 37 E 6 9 29.97 1015 10 16.0934 0 0
10:53 am 10:53 Sunny 93 33.9 61 16.1 34 34 SSE 7 11 29.96 1015 10 16.0934 0 0
11:53 am 11:53 Sunny 95 35 61 16.1 32 32 SE 13 20 29.95 1014 10 16.0934 0 0
12:53 pm 12:53 Sunny 97 36.1 61 16.1 30 30 SE 13 20 29.92 1013 10 16.0934 0 0
1:53 pm 13:53 Sunny 98 36.7 61 16.1 29 29 SSE 10 17 29.89 1012 10 16.0934 0 0
2:53 pm 14:53 Sunny 99 37.2 61 16.1 29 29 S 6 9 29.85 1011 10 16.0934 0 0
3:53 pm 15:53 Sunny 101 38.3 59 15 25 25 SE 10 17 29.83 1010 10 16.0934 0 0
4:53 pm 16:53 Sunny 102 38.9 57 13.9 23 23 SE 8 13 29.81 1010 10 16.0934 0 0
5:53 pm 17:53 Sunny 101 38.3 58 14.4 24 24 S 8 13 29.81 1009 10 16.0934 0 0
6:53 pm 18:53 Sunny 99 37.2 60 15.6 28 28 S 13 20 29.81 1010 10 16.0934 0 0
7:53 pm 19:53 Clear 98 36.7 60 15.6 28 28 S 15 24 29.83 1010 10 16.0934 0 0
8:53 pm 20:53 Clear 96 35.6 60 15.6 30 30 S 13 20 29.85 1011 10 16.0934 0 0
9:53 pm 21:53 Clear 95 35 59 15 30 30 S 10 17 29.86 1011 10 16.0934 0 0
10:53 pm 22:53 Clear 94 34.4 59 15 31 31 SSE 13 20 29.87 1011 10 16.0934 0 0
11:53 pm 23:53 Clear 93 33.9 60 15.6 33 33 SSE 10 17 29.87 1012 10 16.0934 0 0

Powered by AerisWeather